Location: Cactus School
(34.5700°N, 118.0931°W)
Time: 15:15:58
(UTC-07:00)

S-56A Canister/Altair - Pass Details

Date: 19 April 2024
Orbit: 638 x 2488 km, 38.9° (Epoch: 29 May)

Event Time Altitude Azimuth Distance (km) Brightness Sun altitude
Rises 20:18:05 0° 281° (W) 3,570 12.9 -10.6°
Reaches altitude 10° 20:20:19 10° 285° (WNW) 2,802 11.9 -11.0°
Maximum altitude 20:27:11 67° 8° (N) 1,437 8.9 -12.3°
Enters shadow 20:37:00 12° 89° (E) 3,970 10.6 -14.1°
Drops below altitude 10° 20:37:47 10° 90° (E) 4,218 - -14.3°
Sets 20:41:53 0° 93° (E) 5,486 - -15.0°
